Location: Bottom School (historical)
(37.9078°N, 89.3593°W)
Time: 19:24:24
(UTC+00:00)

SL-4 R/B - Pass Details

Date: 07 July 2022
Orbit: 425 x 653 km, 51.6° (Epoch: 16 August)

Event Time Altitude Azimuth Distance (km) Brightness Sun altitude
Rises 07:47:28 0° 309° (NW) 2,478 5.5 -24.7°
Reaches altitude 10° 07:51:47 10° 358° (N) 1,670 5.3 -24.3°
Maximum altitude 07:52:04 10° 2° (N) 1,670 5.3 -24.3°
Drops below altitude 10° 07:52:20 10° 7° (N) 1,679 5.4 -24.2°
Sets 07:56:55 0° 55° (NE) 2,647 6.5 -23.8°
